"Pseudo-MPEC" for A10whaK = ZTF0KWt

Created 2021 Apr 7 16:32:14 UT using Find_Orb

Click here for an explanation of pseudo-MPECs

TLEs are available for this object, and for most of the other objects listed on these pages. Note that, because of sparse data and unpredictable non-gravs, the TLEs are probably only good for a few weeks around the date of observation.

 
 Astrometry: 
     ZTF0KWt  C2021 02 11.33355810 37 51.19 +12 49 19.0    ~2BGs       UNEOCPI41
     ZTF0KWt  C2021 02 11.33390610 37 56.70 +12 49 19.3    ~2BGs       UNEOCPI41
     ZTF0KWt* C2021 02 11.34981510 42 09.05 +12 49 00.6    ~2BED 17.29RUNEOCPI41
     ZTF0KWt  C2021 02 11.35016210 42 14.46 +12 48 59.3    ~2BED 17.29RUNEOCPI41
     ZTF0KWt  C2021 02 11.35028910 42 16.34 +12 48 59.9    ~2BED 17.41RUNEOCPI41
     ZTF0KWt  C2021 02 11.35063710 42 21.68 +12 48 58.6    ~2BED 17.41RUNEOCPI41
     ZTF0KWt  C2021 02 11.36936210 47 08.90 +12 47 16.2    ~2BGs       UNEOCPI41
     ZTF0KWt  C2021 02 11.36970910 47 14.13 +12 47 13.3    ~2BGs       UNEOCPI41
     A10whaK* C2021 04 05.44269712 14 23.95 +11 27 36.9    ~45If 17.68cVNEOCPT08
     A10whaK  C2021 04 05.44654112 15 05.98 +11 23 39.6    ~45If 17.67cVNEOCPT08
     A10whaK  C2021 04 05.46100912 17 43.35 +11 08 34.0    ~45If 17.74cVNEOCPT08
     A10whaK  C2021 04 05.48993112 22 57.19 +10 37 33.5    ~45If 17.67cVNEOCPT08
     A10whaK tC2021 04 05BK0v`hkOocEBZRsAstrometry=l(w%a@8uredacted;n0JuFLCa:N82
     A10whaK tC2021 04 05#RCclickrh:P@hmfpEl1e^ea,Oe'l1\.C3eOV]EERvhere?tC`DhN82
     A10whaK tC2021 04 05R/TjtovIZXfor;E:explanation4.]!s2W12V=.P7Q6[@BjN2C.AN82
     A10whaK KC2021 04 05.92225214 56 33.30 -02 53 40.5    ~45Np 16.9 GVNEOCPJ95
     A10whaK KC2021 04 05.93147915 01 16.23 -03 25 00.3    ~45Np 18.0 GVNEOCPJ95
     A10whaK KC2021 04 05.93537415 03 20.02 -03 38 52.2    ~45Np 17.3 GVNEOCPJ95
     A10whaK KC2021 04 05.93720715 04 19.21 -03 45 32.3    ~45Np 18.1 GVNEOCPJ95

Station data:
(I41) Palomar Mountain--ZTF  (N33.357340 W116.859780)  US/California.
   Observers B. T. Bolin, Z. T. F. Collaboration. Measurers B. T. Bolin,
   Z.-Y. Lin, F. J. Masci. 1.2-m f/2.4 Schmidt.
(J95) Great Shefford  (N51.474969 W1.447003)  UK/England.  Observer P.
   Birtwhistle. 0.40-m f/6.0 Schmidt-Cassegrain + CCD.
(N82) Multa Observatory  (N50.172048 E85.954940)  Russia.  Observer L. Elenin.
    0.4-m f/1.25 reflector + CCD.
(T08) ATLAS-MLO, Mauna Loa  (N19.536152 W155.576050)  US/Hawaii.  Observers
   L. Denneau, A. Heinze, H. Weiland, J. Tonry, H. Flewelling, A.
   Fitzsimmons, D. Young, B. Stalder. Measurers L. Denneau, A. Heinze, J.
   Tonry. 0.5-m f/2.0 Schmidt + CCD.

Orbital elements:  A10whaK = ZTF0KWt
   Perigee 2021 Apr 5.003827 +/- 1.46e-5 TT =  0:05:30.6 (JD 2459309.503827)
A1: 8.24e-6 +/- 2.83e-8   A2: -5.78e-7 +/- 1.33e-8   A3: -1.09e-7 +/- 1.57e-9 AU/day^2 [1/r^2]
Epoch 2021 Apr  5.0 TT = JDT 2459309.5                        Gray
M 358.774428117 +/- 0.0055          (J2000 equator)
n 320.241517805 +/- 0.00332         Peri.  323.294947 +/- 0.0024
a 45668.67546 +/- 0.316             Node    48.044603 +/- 0.0011
e   0.77300617 +/- 1.11e-5          Incl.   17.423828 +/- 0.00030
P1618.75m/1.124d           H 33.6   G  0.15   U  8.9
q 10366.50751 +/- 0.484    Q 80970.84341 +/- 0.89
From 19 observations 2021 Feb. 11-Apr. 5; mean residual 1".619
Residuals in arcseconds: 
210211 I41 2.02- .145+    210211 I41 2.61- .368-    210405 N82 .416- .216+
210211 I41 3.24- .153+    210405 T08 1.52- .442+    210405 J95 .856- .266+
210211 I41 4.69+ .272-    210405 T08 .894- .718+    210405 J95 .608+ .046-
210211 I41 4.65+ .495-    210405 T08 .032+ .325+    210405 J95 .417+ .045+
210211 I41 3.18+ .507+    210405 T08 2.15+ .688-    210405 J95 .247- .081-
210211 I41 1.96+ .326+    210405 N82 .806+ 1.26-
210211 I41 2.26- .119-    210405 N82 .884+ .950-
 Residuals (in seconds along-track and arcseconds cross-track): 
210211 I41 -.84s .117-    210211 I41 -1.1s .431+    210405 N82 -.11s .012-
210211 I41 -1.3s .122-    210405 T08 -.61s .074+    210405 J95 -.16s .144+
210211 I41 +1.7s .173+    210405 T08 -.38s .407-    210405 J95 +90ms .164-
210211 I41 +1.7s .394+    210405 T08 +.12s .375-    210405 J95 +52ms .169-
210211 I41 +1.1s .579-    210405 T08 +1.3s .239-    210405 J95 -39ms .220+
210211 I41 +.65s .376-    210405 N82 +.51s .810+
210211 I41 -.93s .166+    210405 N82 +.49s .491+

